Lapse_Rate
6.9 6.6 6.5 7.4 7.4 7.5 7.5 7.5 7.4 7.2 7.1 7.1 7.0 6.9 7.0 7.1 7.2 7.0 7.1 7.1 7.1 7.0 6.8 6.6 6.5 6.5 6.4 6.4 6.5 6.4 6.4 6.2
7.3 6.9 6.4 7.1 7.4 7.5 7.7 7.5 7.5 7.4 7.2 7.0 7.0 7.0 7.1 7.2 7.2 7.0 7.0 7.0 7.1 6.9 6.6 6.5 6.4 6.3 6.4 6.4 6.3 6.3 6.3 6.2
7.9 7.2 6.6 7.1 7.1 7.3 7.5 7.5 7.5 7.4 7.2 6.9 7.0 7.1 7.2 7.2 7.1 7.0 6.9 6.9 7.0 6.8 6.6 6.4 6.3 6.3 6.2 6.2 6.2 6.2 6.2 6.2
8.3 7.5 6.8 7.1 7.0 6.9 7.2 7.4 7.5 7.3 7.0 6.7 6.7 7.0 7.1 7.1 7.2 7.1 7.0 6.8 6.9 6.8 6.6 6.5 6.4 6.3 6.2 6.1 6.1 6.1 6.3 6.2
8.1 7.9 7.0 6.9 7.2 6.9 6.9 6.8 7.1 7.4 7.1 6.7 6.8 6.8 6.9 6.9 7.1 7.3 7.1 7.0 6.9 6.7 6.6 6.5 6.5 6.5 6.3 6.2 6.1 6.1 6.1 6.3
7.3 7.9 7.1 7.0 7.1 7.3 7.0 6.8 6.5 6.8 6.8 6.7 6.7 6.7 6.4 6.6 7.0 7.0 7.0 7.0 7.0 7.0 6.8 6.7 6.7 6.6 6.5 6.4 6.3 6.2 6.1 6.1
7.3 7.4 7.5 6.7 6.6 7.1 7.0 6.8 6.5 6.2 6.3 6.5 6.6 6.3 6.0 6.5 6.8 6.6 6.8 6.9 7.0 7.0 7.0 6.8 6.8 6.7 6.5 6.4 6.4 6.4 6.3 6.2
7.6 7.7 7.0 6.7 6.4 6.7 6.8 6.8 6.5 6.4 6.4 6.5 6.1 5.9 5.6 6.0 6.3 6.2 6.4 6.9 7.1 7.0 6.8 6.9 6.8 6.8 6.7 6.5 6.5 6.4 6.3 6.4
7.5 7.5 7.1 6.4 6.4 6.5 6.8 6.8 6.9 6.8 6.6 6.6 6.4 6.0 5.6 5.9 6.1 6.0 6.5 7.1 7.5 7.4 7.0 6.8 6.7 6.8 6.6 6.6 6.5 6.7 6.7 6.7
6.3 7.3 7.8 7.3 6.4 6.6 6.9 7.0 6.9 6.9 6.6 6.8 6.7 6.4 6.3 6.3 6.2 6.3 6.6 7.1 7.3 7.0 7.1 7.1 6.7 6.6 6.6 6.6 6.6 6.7 6.8 6.8
6.5 7.0 7.3 8.1 8.0 7.3 7.2 7.3 7.2 7.0 7.0 7.3 6.9 6.5 6.4 6.5 6.6 6.7 6.8 7.0 7.1 6.9 6.8 6.9 6.8 6.6 6.5 6.6 6.5 6.7 6.5 6.4
6.0 6.7 7.0 6.7 7.5 7.8 7.9 7.9 7.7 7.6 7.7 7.5 7.1 6.9 6.1 6.2 6.3 6.3 6.6 6.6 6.6 6.5 6.3 6.3 6.4 6.4 6.0 6.2 6.2 6.4 6.3 6.2
5.9 5.6 6.9 7.3 6.3 7.3 7.7 7.8 8.1 7.4 7.4 7.7 7.6 7.0 6.4 6.0 5.7 5.8 6.5 6.3 6.0 6.0 6.1 5.9 6.0 5.9 6.0 6.1 5.7 6.2 6.1 6.5
6.5 6.1 5.5 6.4 6.8 6.5 6.8 7.3 7.7 7.6 6.7 7.0 7.0 6.8 6.6 6.0 5.9 6.0 5.9 5.6 5.2 5.1 5.1 5.3 5.7 5.7 5.6 5.7 5.9 6.1 6.2 6.5
6.8 6.7 6.0 5.7 6.2 6.7 6.8 6.7 6.7 6.6 6.2 6.3 6.4 6.3 6.2 6.1 6.1 5.8 5.6 4.9 4.8 4.7 4.8 5.0 5.0 5.2 5.4 5.7 5.4 5.8 6.1 6.3
7.0 6.6 6.2 6.5 6.3 6.4 6.2 6.3 6.6 6.2 5.9 6.1 6.4 6.6 6.4 6.5 6.2 5.7 5.4 4.5 4.3 4.4 4.3 4.4 4.6 5.1 5.4 4.9 5.6 5.7 6.4 5.7
6.9 6.7 7.0 6.8 6.4 6.7 6.9 7.0 7.1 6.7 7.0 6.9 7.0 6.8 7.1 6.5 6.2 5.4 4.6 4.8 4.4 4.2 4.3 4.5 4.9 5.1 5.1 5.3 5.6 5.8 6.2 6.0
7.9 7.7 7.5 7.7 7.6 7.2 6.9 7.2 6.8 6.7 6.7 6.7 6.5 6.6 6.5 6.3 6.0 5.8 5.2 4.6 4.5 4.3 4.4 4.9 5.3 5.3 5.1 5.1 5.8 5.9 6.0 6.0
8.2 7.9 7.8 7.7 7.8 7.6 7.1 6.9 6.7 6.6 6.3 6.1 5.6 5.6 5.7 5.6 5.1 4.5 4.5 4.7 4.4 4.5 5.1 5.6 5.8 5.4 5.2 5.0 5.5 5.7 6.0 5.9
Wind_Speed
16 16 15 13 13 14 12 9 9 8 6 5 5 4 4 9 8 9 9 5 2 7 6 2 2 3 4 3 2 3 1 3
15 15 16 11 10 13 13 10 10 7 6 7 7 6 4 4 7 9 9 6 3 2 6 3 5 4 4 3 2 1 4 4
17 17 17 13 11 10 10 10 9 6 5 5 6 6 5 4 7 7 10 8 4 4 4 3 3 4 4 4 3 3 3 4
9 18 18 15 13 13 10 10 10 7 6 4 4 6 5 4 5 3 5 9 8 6 6 6 3 3 4 4 4 6 2 2
8 15 19 18 14 15 13 13 12 8 7 5 7 6 7 6 6 5 4 10 9 8 7 6 6 5 4 3 4 3 4 3
4 7 19 18 15 11 9 8 11 10 7 5 5 5 5 6 6 9 6 5 9 9 8 8 6 5 4 6 5 6 4 4
18 17 9 15 13 9 8 7 8 9 7 5 7 8 6 6 8 7 6 5 5 8 9 8 9 6 5 4 5 7 5 6
14 16 9 11 11 8 9 9 7 7 8 7 7 8 7 7 8 5 8 5 4 5 7 6 4 8 8 7 5 6 6 5
8 10 8 7 11 11 9 9 7 6 8 9 7 8 5 5 6 4 5 5 6 6 7 9 9 10 8 9 3 4 5 5
7 4 6 7 5 8 10 10 9 7 7 7 6 6 7 6 7 6 4 8 7 6 9 6 8 8 8 7 4 5 5 5
11 13 2 4 5 4 8 8 7 6 7 6 5 4 4 5 7 7 7 7 8 7 7 7 6 7 8 6 5 5 5 4
6 9 12 1 2 2 6 6 5 1 5 5 6 5 6 6 6 7 8 7 9 8 8 8 8 6 6 6 7 5 6 6
3 6 7 11 4 4 7 5 4 4 4 5 5 6 6 6 7 7 7 8 7 7 7 7 7 7 7 6 7 6 5 6
4 2 5 6 9 5 7 8 6 6 6 7 6 5 7 8 8 9 7 5 8 8 8 8 8 7 7 9 6 6 6 7
9 2 4 7 6 4 4 8 10 7 7 7 7 8 7 7 8 9 8 8 8 8 7 8 8 7 8 9 8 7 6 10
8 8 4 3 6 6 3 4 8 9 10 9 9 9 10 10 9 8 7 9 8 8 8 7 7 6 5 5 8 7 8 10
9 8 7 5 3 4 6 5 7 9 11 10 12 13 12 12 11 8 6 9 9 9 8 8 5 6 7 8 6 7 8 10
9 10 8 4 4 0 6 5 5 6 8 11 11 13 13 13 10 9 9 11 8 7 8 9 10 5 8 12 11 6 7 6
8 7 8 8 0 4 3 5 5 6 9 12 12 11 10 10 8 7 8 9 9 7 10 10 8 5 12 17 17 9 9 8
Wind_Direction
192 185 169 168 165 153 156 156 158 148 152 124 137 138 118 130 113 112 126 102 104 119 83 91 344 53 66 13 8 13 27 26
194 182 156 161 155 157 161 166 157 161 158 166 156 160 146 120 107 129 121 111 94 70 123 144 75 70 60 25 332 236 61 11
195 170 149 153 148 153 156 164 162 185 180 181 168 153 146 130 123 125 117 119 109 93 93 72 49 100 66 33 23 330 91 47
251 154 153 155 160 155 163 168 166 199 203 189 132 118 103 122 127 140 131 121 108 89 62 91 50 70 70 41 12 16 54 104
264 162 163 165 167 153 170 177 172 189 221 183 159 166 164 165 163 128 127 122 111 100 96 71 63 56 70 75 16 34 352 37
295 300 176 168 160 161 170 179 176 175 201 153 161 186 196 161 136 133 143 130 133 125 118 107 92 77 53 54 29 20 21 42
6 3 162 150 143 156 158 185 187 177 177 169 176 224 173 150 140 153 153 147 135 125 114 104 103 89 71 59 58 44 48 32
9 17 84 126 135 156 162 178 201 176 160 175 199 243 160 154 153 162 156 147 137 136 125 121 96 93 82 83 75 58 45 56
24 10 19 155 159 167 170 175 200 196 169 180 209 222 159 161 167 177 149 147 138 127 107 106 112 109 101 99 73 81 73 72
30 70 7 344 174 165 173 179 193 203 187 177 205 189 162 178 169 137 130 115 126 132 122 117 112 108 99 86 95 97 86 84
4 351 35 332 330 152 149 169 193 207 168 163 172 158 165 132 124 123 122 124 132 132 128 124 124 114 118 117 89 72 82 62
14 353 348 169 317 59 136 153 175 217 138 127 135 151 148 128 131 130 133 132 139 143 130 128 120 113 88 91 93 78 88 86
24 1 348 340 189 185 142 157 182 172 170 152 146 142 131 128 130 122 126 134 133 129 129 122 116 115 123 124 95 113 104 90
345 12 0 345 334 173 160 160 175 213 189 175 167 171 160 143 134 130 125 121 117 126 120 128 122 115 109 97 98 89 80 78
310 22 26 350 333 316 193 163 169 182 165 168 173 175 147 118 130 127 135 131 126 128 131 115 111 122 124 118 118 105 103 84
339 37 39 357 330 337 298 195 183 170 173 179 167 134 138 136 128 138 148 143 141 122 114 102 108 95 74 99 124 119 117 107
16 4 6 356 309 299 283 230 194 178 182 172 142 142 147 144 141 155 157 113 105 110 123 128 96 89 62 57 125 135 127 126
6 355 354 28 329 246 235 215 180 171 141 138 143 145 145 142 137 134 134 123 124 135 122 93 79 90 78 72 103 87 82 84
3 345 331 326 195 280 263 161 154 138 143 141 139 136 135 123 125 138 148 139 139 134 115 116 118 121 92 87 86 80 78 70